Portada
METAR-TAF:

METAR-TAF

Aeroports :

Leigh Creek, Austràlia

latitud: 30-35-54S, longitud: 138-25-36E, altitud: 261 m

Observació

L'informe es va fer fa 35 minuts, a les 00:00 UTC
Vent calma
Temperatura 21°C
Humitat 73%
Pressió 1013 hPa
Visibilitat 10 km o més
Cel ennuvolat a una alçada de 1700 ft
Cel cobert a una alçada de 2400 ft

METAR: YLEC 020000Z AUTO 00000KT 9999 // BKN017 OVC024 21/16 Q1013

Hora: 11:05 (00:35 UTC)


TAF: manca

Observacions i pronòstics meteorològics de més de 4000 aeroports (METAR i TAF).

Les estacions disponibles són els punts grocs i vermells al mapa.

Posi el ratolí al punt desitjat per veure el nom de l'estació.

Feu clic per veure les observacions i els pronòstics meteorològics.

Per canviar el mapa: feu clic els botons verds amb una creu de color negre per apropar; al botó verd amb un guió per allunyar la imatge; o en les fletxes verdes per a mapes adjacents.


METAR-TAF: